| time (UTC) | temp F | wind direction | speed MPH | gust MPH | rain 1hr in | rain 24hr in | rain mn in | humidity % | barometer mb |
| 20260905064601 | 66 | 235 | 2.0 | 4.0 | 0.00 | 0.00 | 0.00 | 23 | 1021.4 |
| 20260905063600 | 64 | 311 | 1.0 | 4.0 | 0.00 | 0.00 | 0.00 | 24 | 1021.5 |
| 20260905062600 | 66 | 275 | 2.0 | 4.0 | 0.00 | 0.00 | 0.00 | 23 | 1021.3 |
| 20260905061600 | 64 | 326 | 0.0 | 2.0 | 0.00 | 0.00 | 0.00 | 24 | 1021.0 |
| 20260905060559 | 64 | 194 | 0.0 | 1.0 | 0.00 | 0.00 | 0.00 | 24 | 1020.9 |
| 20260905055559 | 64 | 225 | 0.0 | 1.0 | 0.00 | 0.00 | 0.00 | 24 | 1020.6 |
| 20260905054559 | 64 | 314 | 0.0 | 2.0 | 0.00 | 0.00 | 0.00 | 24 | 1020.6 |
| 20260905053559 | 64 | 308 | 1.0 | 4.0 | 0.00 | 0.00 | 0.00 | 24 | 1020.5 |
| 20260905052558 | 64 | 248 | 0.0 | 5.0 | 0.00 | 0.00 | 0.00 | 24 | 1020.1 |
| 20260905051558 | 63 | 304 | 0.0 | 1.0 | 0.00 | 0.00 | 0.00 | 24 | 1019.9 |
| 20260905050558 | 64 | 265 | 0.0 | 3.0 | 0.00 | 0.00 | 0.00 | 24 | 1020.0 |
| 20260905045557 | 65 | 205 | 2.0 | 5.0 | 0.00 | 0.00 | 0.00 | 23 | 1019.5 |
| 20260905044557 | 65 | 185 | 3.0 | 5.0 | 0.00 | 0.00 | 0.00 | 23 | 1019.2 |
| 20260905043557 | 65 | 238 | 2.0 | 4.0 | 0.00 | 0.00 | 0.00 | 23 | 1018.9 |
| 20260905042556 | 65 | 214 | 3.0 | 5.0 | 0.00 | 0.00 | 0.00 | 23 | 1018.7 |
| 20260905041556 | 65 | 230 | 5.0 | 10.0 | 0.00 | 0.00 | 0.00 | 23 | 1018.4 |
| 20260905040556 | 64 | 270 | 4.0 | 8.0 | 0.00 | 0.00 | 0.00 | 24 | 1018.1 |
| 20260905035556 | 63 | 266 | 2.0 | 5.0 | 0.00 | 0.05 | 0.05 | 24 | 1017.9 |
| 20260905034555 | 64 | 224 | 6.0 | 11.0 | 0.00 | 0.05 | 0.05 | 24 | 1017.9 |
| 20260905033555 | 64 | 227 | 4.0 | 6.0 | 0.00 | 0.05 | 0.05 | 24 | 1018.0 |
| 20260905032555 | 64 | 226 | 6.0 | 8.0 | 0.04 | 0.05 | 0.05 | 24 | 1018.1 |
| 20260905031555 | 64 | 226 | 6.0 | 8.0 | 0.04 | 0.05 | 0.05 | 24 | 1018.1 |
| 20260905030554 | 63 | 211 | 3.0 | 5.0 | 0.05 | 0.05 | 0.05 | 24 | 1018.1 |
| 20260905025554 | 63 | 249 | 3.0 | 6.0 | 0.05 | 0.05 | 0.05 | 24 | 1018.1 |
| 20260905024554 | 63 | 285 | 3.0 | 6.0 | 0.05 | 0.05 | 0.05 | 24 | 1017.9 |
| 20260905023553 | 64 | 290 | 1.0 | 4.0 | 0.05 | 0.05 | 0.05 | 24 | 1017.7 |
| 20260905022553 | 64 | 270 | 3.0 | 5.0 | 0.01 | 0.01 | 0.01 | 24 | 1017.7 |
| 20260905021553 | 68 | 242 | 2.0 | 4.0 | 0.01 | 0.01 | 0.01 | 23 | 1017.7 |
| 20260905020552 | 68 | 283 | 1.0 | 3.0 | 0.00 | 0.00 | 0.00 | 23 | 1017.4 |
| 20260905015552 | 67 | 61 | 1.0 | 3.0 | 0.00 | 0.00 | 0.00 | 23 | 1017.0 |
| 20260905014552 | 68 | 181 | 1.0 | 2.0 | 0.00 | 0.00 | 0.00 | 23 | 1017.0 |
| 20260905013551 | 68 | 117 | 1.0 | 3.0 | 0.00 | 0.00 | 0.00 | 23 | 1016.8 |
| 20260905012551 | 67 | 163 | 1.0 | 3.0 | 0.00 | 0.00 | 0.00 | 23 | 1016.9 |
| 20260905011551 | -1 | 127 | 1.0 | 4.0 | 0.00 | 0.00 | 0.00 | 12 | 1010.1 |
| 20260905010551 | 67 | 122 | 0.0 | 4.0 | 0.00 | 0.00 | 0.00 | 23 | 1016.8 |
| 20260905005550 | 67 | 122 | 0.0 | 3.0 | 0.00 | 0.00 | 0.00 | 23 | 1016.8 |
| 20260905004550 | 67 | 63 | 2.0 | 3.0 | 0.00 | 0.00 | 0.00 | 23 | 1016.8 |
| 20260905003550 | 67 | 127 | 1.0 | 3.0 | 0.00 | 0.00 | 0.00 | 23 | 1016.8 |
| 20260905002549 | 66 | 63 | 0.0 | 3.0 | 0.00 | 0.00 | 0.00 | 23 | 1016.7 |
| 20260905001549 | 65 | 64 | 0.0 | 1.0 | 0.00 | 0.00 | 0.00 | 23 | 1016.7 |
| 20260905000549 | 65 | 88 | 0.0 | 1.0 | 0.00 | 0.00 | 0.00 | 23 | 1016.7 |
| 20260904235549 | 65 | 92 | 0.0 | 2.0 | 0.00 | 0.00 | 0.00 | 23 | 1016.6 |
| 20260904234548 | 65 | 59 | 0.0 | 2.0 | 0.00 | 0.00 | 0.00 | 23 | 1016.7 |
| 20260904233548 | 65 | 129 | 0.0 | 3.0 | 0.00 | 0.00 | 0.00 | 23 | 1016.7 |
| 20260904232548 | 64 | 122 | 1.0 | 2.0 | 0.00 | 0.00 | 0.00 | 24 | 1016.8 |
| 20260904231547 | 64 | 131 | 0.0 | 1.0 | 0.00 | 0.00 | 0.00 | 24 | 1016.8 |
| 20260904230547 | 64 | 90 | 0.0 | 1.0 | 0.00 | 0.00 | 0.00 | 24 | 1016.9 |
| 20260904225547 | 65 | 67 | 0.0 | 0.0 | 0.00 | 0.00 | 0.00 | 23 | 1016.9 |
| 20260904224546 | 66 | 108 | 0.0 | 2.0 | 0.00 | 0.00 | 0.00 | 23 | 1016.8 |
| 20260904223546 | 64 | 181 | 0.0 | 0.0 | 0.00 | 0.00 | 0.00 | 24 | 1016.8 |
| 20260904222546 | 65 | 28 | 0.0 | 2.0 | 0.00 | 0.00 | 0.00 | 23 | 1016.9 |
| 20260904221546 | 65 | 90 | 0.0 | 2.0 | 0.00 | 0.00 | 0.00 | 23 | 1016.8 |
| 20260904220545 | 64 | 90 | 0.0 | 1.0 | 0.00 | 0.00 | 0.00 | 24 | 1010.4 |
| 20260904215545 | 63 | 0 | 0.0 | 0.0 | 0.00 | 0.00 | 0.00 | 24 | 1016.9 |
| 20260904214545 | 62 | 0 | 0.0 | 0.0 | 0.00 | 0.00 | 0.00 | 24 | 1016.9 |
| 20260904213544 | 62 | 135 | 0.0 | 0.0 | 0.00 | 0.00 | 0.00 | 24 | 1017.1 |
| 20260904212544 | 62 | 0 | 0.0 | 0.0 | 0.00 | 0.00 | 0.00 | 24 | 1017.2 |
| 20260904211544 | 65 | 0 | 0.0 | 0.0 | 0.00 | 0.00 | 0.00 | 23 | 1017.5 |
| 20260904210543 | 65 | 0 | 0.0 | 0.0 | 0.00 | 0.00 | 0.00 | 23 | 1017.5 |
| 20260904205543 | 64 | 0 | 0.0 | 0.0 | 0.00 | 0.00 | 0.00 | 24 | 1017.5 |
| 20260904204543 | 66 | 0 | 0.0 | 0.0 | 0.00 | 0.00 | 0.00 | 23 | 1017.6 |
| 20260904203543 | 67 | 110 | 0.0 | 2.0 | 0.00 | 0.00 | 0.00 | 23 | 1017.8 |
| 20260904202542 | 68 | 93 | 0.0 | 1.0 | 0.00 | 0.00 | 0.00 | 23 | 1017.8 |
| 20260904201542 | 69 | 23 | 0.0 | 2.0 | 0.00 | 0.00 | 0.00 | 22 | 1018.0 |
| 20260904200542 | 70 | 52 | 1.0 | 2.0 | 0.00 | 0.00 | 0.00 | 22 | 1018.2 |
| 20260904195541 | 71 | 356 | 1.0 | 3.0 | 0.00 | 0.00 | 0.00 | 22 | 1018.3 |
| 20260904194541 | 70 | 113 | 1.0 | 4.0 | 0.00 | 0.00 | 0.00 | 22 | 1018.2 |
| 20260904193541 | 70 | 149 | 1.0 | 4.0 | 0.00 | 0.00 | 0.00 | 22 | 1018.4 |
| 20260904192541 | 70 | 104 | 1.0 | 3.0 | 0.00 | 0.00 | 0.00 | 22 | 1018.3 |
| 20260904191540 | 71 | 125 | 2.0 | 4.0 | 0.00 | 0.00 | 0.00 | 22 | 1018.3 |
| 20260904190540 | 70 | 111 | 2.0 | 4.0 | 0.00 | 0.00 | 0.00 | 22 | 1018.3 |
| 20260904185540 | 72 | 94 | 2.0 | 5.0 | 0.00 | 0.00 | 0.00 | 21 | 1018.3 |
| 20260904184539 | 71 | 138 | 2.0 | 5.0 | 0.00 | 0.00 | 0.00 | 22 | 1018.3 |
| 20260904183539 | 69 | 119 | 0.0 | 4.0 | 0.00 | 0.00 | 0.00 | 22 | 1018.1 |
| 20260904182539 | 70 | 66 | 0.0 | 1.0 | 0.00 | 0.00 | 0.00 | 22 | 1018.1 |
| 20260904181539 | 71 | 26 | 0.0 | 1.0 | 0.00 | 0.00 | 0.00 | 22 | 1018.1 |
| 20260904180538 | 70 | 136 | 0.0 | 4.0 | 0.00 | 0.00 | 0.00 | 22 | 1017.9 |
| 20260904175538 | 69 | 0 | 0.0 | 0.0 | 0.00 | 0.00 | 0.00 | 22 | 1017.8 |
| 20260904174538 | 70 | 102 | 0.0 | 2.0 | 0.00 | 0.00 | 0.00 | 22 | 1017.8 |
| 20260904173537 | 71 | 90 | 0.0 | 2.0 | 0.00 | 0.00 | 0.00 | 22 | 1017.9 |
| 20260904172537 | 72 | 117 | 1.0 | 2.0 | 0.00 | 0.00 | 0.00 | 21 | 1017.9 |
| 20260904171537 | 73 | 52 | 0.0 | 4.0 | 0.00 | 0.00 | 0.00 | 21 | 1018.1 |
| 20260904170536 | 73 | 29 | 0.0 | 1.0 | 0.00 | 0.00 | 0.00 | 21 | 1018.2 |
| 20260904165536 | 74 | 93 | 0.0 | 1.0 | 0.00 | 0.00 | 0.00 | 21 | 1018.4 |
| 20260904164536 | 76 | 41 | 2.0 | 4.0 | 0.00 | 0.00 | 0.00 | 20 | 1018.6 |
| 20260904163536 | 76 | 59 | 2.0 | 5.0 | 0.00 | 0.00 | 0.00 | 20 | 1018.8 |
| 20260904162535 | 77 | 47 | 1.0 | 3.0 | 0.00 | 0.00 | 0.00 | 20 | 1019.0 |
| 20260904161535 | 78 | 18 | 3.0 | 6.0 | 0.00 | 0.00 | 0.00 | 20 | 1019.3 |
| 20260904160535 | 81 | 53 | 3.0 | 4.0 | 0.00 | 0.00 | 0.00 | 20 | 1019.6 |
| 20260904155534 | 81 | 17 | 2.0 | 4.0 | 0.00 | 0.00 | 0.00 | 20 | 1019.6 |
| 20260904154534 | 81 | 90 | 5.0 | 10.0 | 0.00 | 0.00 | 0.00 | 20 | 1019.6 |
| 20260904153534 | 80 | 57 | 5.0 | 8.0 | 0.00 | 0.00 | 0.00 | 20 | 1019.8 |
| 20260904152534 | 78 | 329 | 4.0 | 6.0 | 0.00 | 0.00 | 0.00 | 20 | 1019.8 |
| 20260904151533 | 76 | 19 | 3.0 | 5.0 | 0.00 | 0.00 | 0.00 | 20 | 1019.8 |
| 20260904150533 | 75 | 92 | 3.0 | 5.0 | 0.00 | 0.00 | 0.00 | 21 | 1019.8 |
| 20260904145533 | 75 | 55 | 3.0 | 8.0 | 0.00 | 0.00 | 0.00 | 20 | 1019.9 |
| 20260904144532 | 79 | 89 | 3.0 | 5.0 | 0.00 | 0.00 | 0.00 | 20 | 1020.2 |
| 20260904143532 | 77 | 159 | 4.0 | 7.0 | 0.00 | 0.00 | 0.00 | 20 | 1020.3 |
| 20260904142532 | 78 | 136 | 4.0 | 8.0 | 0.00 | 0.00 | 0.00 | 20 | 1020.4 |
| 20260904141532 | 79 | 87 | 4.0 | 7.0 | 0.00 | 0.00 | 0.00 | 20 | 1020.4 |
| 20260904140531 | 81 | 78 | 1.0 | 5.0 | 0.00 | 0.00 | 0.00 | 20 | 1020.7 |
| 20260904135531 | 81 | 85 | 3.0 | 6.0 | 0.00 | 0.00 | 0.00 | 20 | 1020.7 |
| 20260904134531 | 79 | 122 | 2.0 | 6.0 | 0.00 | 0.00 | 0.00 | 20 | 1020.8 |
| 20260904133530 | 80 | 68 | 1.0 | 5.0 | 0.00 | 0.00 | 0.00 | 20 | 1020.9 |
| 20260904132530 | 78 | 106 | 2.0 | 4.0 | 0.00 | 0.00 | 0.00 | 20 | 1021.0 |
| 20260904131530 | 80 | 109 | 3.0 | 6.0 | 0.00 | 0.00 | 0.00 | 20 | 1021.2 |
| 20260904130529 | 80 | 151 | 3.0 | 7.0 | 0.00 | 0.00 | 0.00 | 20 | 1021.3 |
| 20260904125529 | 81 | 110 | 3.0 | 9.0 | 0.00 | 0.00 | 0.00 | 20 | 1021.4 |
| 20260904124529 | 77 | 87 | 3.0 | 6.0 | 0.00 | 0.00 | 0.00 | 20 | 1021.3 |
| 20260904123529 | 79 | 109 | 2.0 | 4.0 | 0.00 | 0.00 | 0.00 | 20 | 1021.6 |
| 20260904122528 | 77 | 140 | 2.0 | 6.0 | 0.00 | 0.00 | 0.00 | 20 | 1021.5 |
| 20260904121528 | 81 | 112 | 2.0 | 4.0 | 0.00 | 0.00 | 0.00 | 20 | 1022.0 |
| 20260904120528 | 80 | 96 | 2.0 | 4.0 | 0.00 | 0.00 | 0.00 | 20 | 1022.0 |
| 20260904115527 | 81 | 84 | 3.0 | 7.0 | 0.00 | 0.00 | 0.00 | 20 | 1022.3 |
| 20260904114527 | 81 | 111 | 3.0 | 5.0 | 0.00 | 0.00 | 0.00 | 20 | 1022.5 |
| 20260904113527 | 82 | 109 | 3.0 | 8.0 | 0.00 | 0.00 | 0.00 | 20 | 1022.6 |
| 20260904112527 | 83 | 89 | 3.0 | 7.0 | 0.00 | 0.00 | 0.00 | 20 | 1022.9 |
| 20260904111526 | 77 | 146 | 4.0 | 11.0 | 0.00 | 0.00 | 0.00 | 20 | 1022.6 |
| 20260904110526 | 81 | 95 | 3.0 | 5.0 | 0.00 | 0.00 | 0.00 | 20 | 1022.7 |
| 20260904105526 | 77 | 95 | 3.0 | 5.0 | 0.00 | 0.00 | 0.00 | 20 | 1022.7 |
| 20260904104525 | 76 | 98 | 4.0 | 12.0 | 0.00 | 0.00 | 0.00 | 20 | 1022.7 |
| 20260904103525 | 77 | 102 | 3.0 | 6.0 | 0.00 | 0.00 | 0.00 | 20 | 1022.9 |
| 20260904102525 | 77 | 113 | 4.0 | 6.0 | 0.00 | 0.00 | 0.00 | 20 | 1022.9 |
| 20260904101525 | 79 | 101 | 3.0 | 8.0 | 0.00 | 0.00 | 0.00 | 20 | 1023.1 |
| 20260904100524 | 76 | 143 | 2.0 | 4.0 | 0.00 | 0.00 | 0.00 | 20 | 1022.9 |
| 20260904095524 | 77 | 114 | 3.0 | 6.0 | 0.00 | 0.00 | 0.00 | 20 | 1023.1 |
| 20260904094524 | 75 | 89 | 4.0 | 7.0 | 0.00 | 0.00 | 0.00 | 21 | 1023.0 |
| 20260904093523 | 76 | 119 | 1.0 | 3.0 | 0.00 | 0.00 | 0.00 | 20 | 1023.1 |
| 20260904092523 | 74 | 122 | 3.0 | 6.0 | 0.00 | 0.00 | 0.00 | 21 | 1023.1 |
| 20260904091523 | 74 | 120 | 3.0 | 6.0 | 0.00 | 0.00 | 0.00 | 21 | 1023.3 |
| 20260904090522 | 78 | 153 | 1.0 | 6.0 | 0.00 | 0.00 | 0.00 | 20 | 1023.6 |
| 20260904085522 | 77 | 136 | 2.0 | 4.0 | 0.00 | 0.00 | 0.00 | 20 | 1023.6 |
| 20260904084522 | 76 | 26 | 2.0 | 5.0 | 0.00 | 0.00 | 0.00 | 20 | 1023.4 |
| 20260904083522 | 76 | 112 | 2.0 | 4.0 | 0.00 | 0.00 | 0.00 | 20 | 1023.5 |
| 20260904082521 | 76 | 78 | 3.0 | 8.0 | 0.00 | 0.00 | 0.00 | 20 | 1023.5 |
| 20260904081521 | 77 | 66 | 2.0 | 5.0 | 0.00 | 0.00 | 0.00 | 20 | 1023.7 |
| 20260904080521 | 78 | 28 | 2.0 | 5.0 | 0.00 | 0.00 | 0.00 | 20 | 1023.7 |
| 20260904075520 | 77 | 69 | 2.0 | 6.0 | 0.00 | 0.00 | 0.00 | 20 | 1023.6 |
| 20260904074520 | 76 | 90 | 2.0 | 7.0 | 0.00 | 0.00 | 0.00 | 20 | 1023.5 |
| 20260904073520 | 79 | 36 | 1.0 | 5.0 | 0.00 | 0.00 | 0.00 | 20 | 1023.8 |
| 20260904072520 | 75 | 25 | 1.0 | 5.0 | 0.00 | 0.00 | 0.00 | 21 | 1023.5 |
| 20260904071519 | 70 | 47 | 1.0 | 3.0 | 0.00 | 0.00 | 0.00 | 22 | 1023.1 |
| 20260904070519 | 67 | 10 | 0.0 | 2.0 | 0.00 | 0.00 | 0.00 | 23 | 1022.7 |
| 20260904065519 | 67 | 356 | 0.0 | 1.0 | 0.00 | 0.00 | 0.00 | 23 | 1022.7 |